Flag for Germany Weather past 2 weeks in Limburg an der Lahn, Hesse, Germany

Now
32 °F

Light snow. Ice fog.


Feels Like: 22 °F
Forecast: 29 / 50 °F
Wind: 15 mph from Northwest

Location: Hessen

Current Time: Apr 2, 2015 at 12:13:26 PM

Latest Report: Apr 2, 2015 at 11:20 AM


Visibility: 2 mi

Pressure: 29.80 "Hg

Humidity: 100%

Dew point: 32 °F

Location of Limburg an der LahnLocation

Historic Weather in Limburg an der Lahn — Graph

°F

Limburg an der Lahn temperature yesterday

Maximum temperature yesterday: 36 °F (at 2:20 PM)
Minimum temperature yesterday: 30 °F (at 9:20 AM)
Average temperature yesterday: 33 °F

Past Weeks' High & Low Weather Summary

 TemperatureHumidityPressure
High59 °F (Mar 18, 2:20 PM)100% (Mar 19, 7:50 AM)30.30 "Hg (Mar 19, 7:50 AM)
Low30 °F (Mar 22, 7:20 AM)44% (Mar 18, 1:20 PM)29.30 "Hg (Mar 29, 8:50 PM)
Average41 °F83%29.90 "Hg
* Reported Mar 18 9:20 AM — Apr 2 10:50 AM, Limburg an der Lahn, Weather by CustomWeather, © 2015

Note: Actual official high and low records may vary slightly from our data, if they occured in-between our weather recording intervals... More about our weather records

Advertising

Limburg an der Lahn weather history for previous 24 hours

 ConditionsComfort  
Time TempWeatherWind HumidityBarometerVisibility
10:50 AM
Thu, Apr 2
32 °FLight snow. Broken clouds.20 mph100%29.77 "Hg4 mi
10:20 AM32 °FSnow. Ice fog.20 mph100%29.77 "Hg1 mi
9:50 AM32 °FSnow. Fog.15 mph100%29.74 "Hg1 mi
9:20 AM32 °FSnow. Ice fog.13 mph100%29.71 "Hg1 mi
8:50 AM32 °FSnow. Ice fog.14 mph100%29.71 "Hg1 mi
8:20 AM32 °FSnow. Fog.17 mph100%29.71 "Hg1 mi
7:50 AM32 °FSnow. Ice fog.16 mph100%29.71 "Hg1 mi
9:50 PM
Wed, Apr 1
36 °FPassing clouds.17 mph75%30.01 "HgN/A
9:20 PM36 °FPassing clouds.17 mph75%30.01 "HgN/A
8:50 PM34 °FScattered clouds.15 mph87%30.01 "HgN/A
8:20 PM34 °FPassing clouds.13 mph87%30.04 "HgN/A
7:50 PM34 °FScattered clouds.15 mph87%30.01 "HgN/A
7:20 PM34 °FScattered showers. Scattered clouds.21 mph93%30.01 "HgN/A
6:50 PM34 °FHeavy snow. Broken clouds.15 mph87%30.01 "Hg1 mi
6:20 PM34 °FScattered showers. Scattered clouds.61 mph87%30.01 "HgN/A
5:50 PM32 °FSnow. Broken clouds.24 mph93%30.01 "Hg1 mi
5:20 PM34 °FHail. Broken clouds.1 mph87%30.01 "Hg2 mi
4:50 PM32 °FChilly.18 mph93%30.01 "HgN/A
4:20 PM36 °FSnow showers. Broken clouds.16 mph81%29.98 "HgN/A
3:50 PM36 °FScattered showers. Broken clouds.15 mph87%29.98 "HgN/A
3:20 PM36 °FSnow showers. Broken clouds.20 mph87%29.98 "HgN/A
2:50 PM36 °FScattered showers. Broken clouds.20 mph87%29.98 "HgN/A
2:20 PM36 °FBroken clouds.15 mph87%29.98 "HgN/A
1:50 PM32 °FPartly sunny.18 mph100%29.98 "Hg5 mi
12:50 PM34 °FScattered showers. Partly sunny.18 mph87%29.98 "HgN/A
12:20 PM34 °FSnow flurries. Broken clouds.17 mph87%29.98 "Hg5 mi
Weather by CustomWeather, © 2015

See weather overviewHow to use our weather pages